Regional Weather Roundup
Issued by NWS State College, PA

Home | Current Version | Previous Version | Text Only | Print | Product List | Glossary Off
Versions: 1 2 3 4 5 6 7 8 9 10 11 12 13 14 15 16 17 18 19 20 21 22 23 24 25 26 27 28 29 30 31 32 33 34 35 36 37 38 39 40 41 42 43 44 45 46 47 48 49 50

000
ASUS41 KCTP 230203
RWRCTP

REGIONAL WEATHER ROUNDUP
NATIONAL WEATHER SERVICE STATE COLLEGE PA
900 PM EST WED NOV 22 2017

Note: "fair" indicates few or no clouds below 12,000 feet with no
significant weather and/or obstructions to visibility.

* = STATION THAT DOES NOT REPORT PRECIPITATION /E.G. RAIN...SNOW...ETC/
    THUNDER OR FOG.

PAZ002>004-007>009-013>016-020>023-029>032-230300-
WESTERN PENNSYLVANIA

CITY           SKY/WX    TMP DP  RH WIND       PRES   REMARKS
ERIE           CLOUDY    34  21  59 NW6       30.22F
MEADVILLE      NOT AVBL
FRANKLIN*      CLOUDY    28  23  81 W6        30.18F
NEW CASTLE     CLOUDY    30  24  78 W3        30.22F
BEAVER COUNTY  CLOUDY   N/A N/A N/A NW3       30.21F
BUTLER*        CLOUDY    29  21  72 CALM      30.21F
PITTSBURGH INT CLOUDY    30  19  63 NW7       30.21F
PITTSBURGH     CLOUDY    31  16  54 N6        30.21F
INDIANA*       CLOUDY    32  21  64 W5        30.22F
LATROBE        MOCLDY    32  19  59 NW8       30.23F
WASHINGTON CO* CLOUDY    31  22  69 N6        30.25F
$$

PAZ004>006-010>012-017>019-024>028-033>037-041-042-045-046-049>053-230300-
CENTRAL PENNSYLVANIA

CITY           SKY/WX    TMP DP  RH WIND       PRES   REMARKS
BRADFORD       CLOUDY    26  20  77 NW8       30.12F
DUBOIS         CLOUDY    28  20  71 W10       30.14F
CLEARFIELD     CLOUDY    31  19  61 NW6       30.17S
JOHNSTOWN      CLOUDY    27  18  69 NW16G22   30.12F WCI  15
ALTOONA        CLOUDY    33  21  61 NW12      30.16F
STATE COLLEGE  CLOUDY    32  19  59 NW8       30.16F
WILLIAMSPORT   CLOUDY    36  18  48 NW15G24   30.17S
SELINSGROVE    CLOUDY    36  22  56 N8        30.17F
FT INDIANTOWN  CLOUDY    36  19  50 NW6G22    30.14R
CAPITAL CITY   MOCLDY    38  19  46 NW17G25   30.16R
HARRISBURG     CLOUDY    37  22  54 NW20      30.14S
YORK           CLOUDY    35  23  61 VRB5      30.15R
$$

PAZ038>040-043-044-047-048-054-055-060>062-067>071-230300-
EASTERN PENNSYLVANIA

CITY           SKY/WX    TMP DP  RH WIND       PRES   REMARKS
SCRANTON       CLOUDY    32  19  58 NW18G25   30.12S
MOUNT POCONO   CLOUDY    27  19  72 NW21G29   30.03R WCI  13
ALLENTOWN      CLOUDY    37  21  52 NW14G20   30.11R
QUAKERTOWN*    MOCLDY    36  23  60 NW8       30.10S
READING        CLOUDY    38  23  55 NW22G32   30.11S
LANCASTER      CLEAR     37  23  56 NW12      30.13S
COATESVILLE    CLEAR     36  23  60 NW8G16    30.11R
POTTSTOWN      CLEAR     36  21  54 NW12      30.12R
BLUE BELL      CLOUDY    36  25  64 NW3       30.12R
DOYLESTOWN     CLEAR     35  23  61 NW8       30.08S
WILLOW GROVE   NOT AVBL
NORTH PHILA    CLEAR     40  24  53 NW12      30.11R
PHILADELPHIA   PTCLDY    40  22  48 N18G25    30.11R
$$




USA.gov is the U.S. government's official web portal to all federal, state and local government web resources and services.